Home   Weather   Shiprock   Past weeks

Flag for USA Past Weather in Shiprock, New Mexico, USA — Yesterday and Last 2 Weeks

Now
44 °F

Overcast.


Feels Like: 44 °F
Forecast: 37 / 53 °F
Wind: No wind

Location: Four Corners Regional Airport

Current Time: Apr 28, 2017 at 5:54:49 pm

Latest Report: Apr 28, 2017 at 4:53 pm


Visibility: 10 mi

Pressure: 29.68 "Hg (24.74 "Hg at 1492m altitude)

Humidity: 40%

Dew Point: 21 °F

Location of ShiprockLocation

Past Weather in Shiprock — Graph

°F

Shiprock Temperature Yesterday

Maximum temperature yesterday: 58 °F (at 5:53 pm)
Minimum temperature yesterday: 41 °F (at 11:06 am)
Average temperature yesterday: 48 °F

High & Low Weather Summary for the Past Weeks

 TemperatureHumidityPressure
High78 °F (Apr 18, 5:53 pm)93% (Apr 27, 6:53 am)30.13 "Hg (Apr 27, 6:53 am)
Low32 °F (Apr 22, 6:53 am)2% (Apr 14, 3:53 pm)29.48 "Hg (Apr 25, 2:53 am)
Average54 °F34%29.85 "Hg
* Reported Apr 13 3:53 pm — Apr 28 3:53 pm, Shiprock, Weather by CustomWeather, © 2017

Note: Actual official high and low records may vary slightly from our data, if they occured in-between our weather recording intervals... More about our weather records

Advertising

Shiprock Weather History for the Previous 24 Hours

Scroll right to see more
 ConditionsComfort  
Time TempWeatherWind HumidityBarometerVisibility
3:53 pm
Fri, Apr 28
46 °FBroken clouds.5 mph51%29.67 "Hg10 mi
2:53 pm41 °FScattered clouds.9 mph86%29.71 "Hg10 mi
2:13 pm36 °FCloudy.7 mph89%29.75 "Hg9 mi
2:00 pm34 °FLight snow. Fog.7 mph92%29.75 "Hg3 mi
1:41 pm33 °FSnow. Fog.14 mph88%29.75 "Hg1 mi
12:53 pm45 °FBroken clouds.6 mph49%29.68 "Hg10 mi
11:53 am41 °FMore clouds than sun.6 mph62%29.72 "Hg10 mi
11:21 am40 °FMostly cloudy.7 mph70%29.76 "Hg10 mi
10:53 am39 °FOvercast.8 mph76%29.73 "Hg10 mi
9:53 am37 °FOvercast.7 mph86%29.72 "Hg10 mi
8:53 am36 °FOvercast.7 mph89%29.73 "Hg10 mi
8:21 am35 °FLight rain. Mostly cloudy.14 mph92%29.77 "Hg10 mi
7:53 am34 °FLight rain. Mostly cloudy.5 mph88%29.74 "Hg9 mi
7:40 am35 °FLight rain. More clouds than sun.7 mph88%29.78 "Hg9 mi
7:04 am37 °FLight rain. Overcast.10 mph76%29.78 "Hg10 mi
5:53 am40 °FOvercast.14 mph60%29.68 "Hg10 mi
4:53 am41 °FOvercast.10 mph55%29.70 "Hg10 mi
3:53 am43 °FOvercast.12 mph43%29.70 "Hg10 mi
2:53 am44 °FMostly cloudy.9 mph45%29.69 "Hg10 mi
1:53 am45 °FOvercast.9 mph35%29.69 "Hg10 mi
12:53 am47 °FMostly cloudy.7 mph32%29.69 "Hg10 mi
11:53 pm
Thu, Apr 27
44 °FPassing clouds.7 mph40%29.68 "Hg10 mi
10:53 pm48 °FPartly cloudy.14 mph29%29.69 "Hg10 mi
9:53 pm49 °FPassing clouds.17 mph23%29.65 "Hg10 mi
8:53 pm50 °FPassing clouds.16 mph26%29.61 "Hg10 mi
7:53 pm53 °FPartly sunny.12 mph27%29.59 "Hg10 mi
6:53 pm57 °FPartly sunny.23 mph18%29.55 "Hg10 mi
5:53 pm58 °FScattered clouds.21 mph30%29.53 "Hg10 mi
Weather by CustomWeather, © 2017

See weather overviewHow to use our weather pages